TimePST,TemperatureF,Dew PointF,Humidity,Sea Level PressureIn,VisibilityMPH,Wind Direction,Wind SpeedMPH,Gust SpeedMPH,PrecipitationIn,Events,Conditions,WindDirDegrees,DateUTC
12:15 AM,39.2,37.4,93,30.37,10.0,Calm,Calm,-,N/A,,Overcast,0,2012-12-09 08:15:00
12:35 AM,39.2,37.4,93,30.36,10.0,Calm,Calm,-,N/A,,Overcast,0,2012-12-09 08:35:00
12:55 AM,39.2,35.6,87,30.36,10.0,Calm,Calm,-,N/A,,Overcast,0,2012-12-09 08:55:00
1:15 AM,39.2,37.4,93,30.37,10.0,Calm,Calm,-,N/A,,Overcast,0,2012-12-09 09:15:00
1:35 AM,39.2,35.6,87,30.37,10.0,Calm,Calm,-,N/A,,Overcast,0,2012-12-09 09:35:00
1:55 AM,39.2,35.6,87,30.38,10.0,Calm,Calm,-,N/A,,Overcast,0,2012-12-09 09:55:00
2:15 AM,39.2,35.6,87,30.37,10.0,SSE,3.5,-,N/A,,Overcast,150,2012-12-09 10:15:00
2:35 AM,39.2,35.6,87,30.38,10.0,Calm,Calm,-,N/A,,Overcast,0,2012-12-09 10:35:00
2:55 AM,39.2,35.6,87,30.39,10.0,Calm,Calm,-,N/A,,Overcast,0,2012-12-09 10:55:00
3:15 AM,41.0,35.6,81,30.39,10.0,Calm,Calm,-,N/A,,Overcast,0,2012-12-09 11:15:00
3:35 AM,41.0,35.6,81,30.37,10.0,SSE,5.8,-,N/A,,Overcast,160,2012-12-09 11:35:00
4:15 AM,41.0,35.6,81,30.39,10.0,SSE,3.5,-,N/A,,Overcast,150,2012-12-09 12:15:00
4:35 AM,41.0,35.6,81,30.38,10.0,South,4.6,-,N/A,,Overcast,170,2012-12-09 12:35:00
4:55 AM,41.0,35.6,81,30.38,10.0,SSE,4.6,-,N/A,,Overcast,150,2012-12-09 12:55:00
5:15 AM,41.0,35.6,81,30.39,10.0,SSE,6.9,-,N/A,,Overcast,160,2012-12-09 13:15:00
5:35 AM,41.0,35.6,81,30.39,10.0,SSE,5.8,-,N/A,,Overcast,160,2012-12-09 13:35:00
5:55 AM,41.0,35.6,81,30.39,10.0,SSE,4.6,-,N/A,,Overcast,160,2012-12-09 13:55:00
6:15 AM,41.0,35.6,81,30.37,10.0,South,6.9,-,N/A,,Overcast,180,2012-12-09 14:15:00
6:35 AM,41.0,35.6,81,30.37,10.0,SSE,6.9,-,N/A,,Overcast,160,2012-12-09 14:35:00
6:55 AM,41.0,35.6,81,30.39,10.0,SSE,3.5,-,N/A,,Overcast,160,2012-12-09 14:55:00
7:15 AM,41.0,35.6,81,30.39,10.0,South,4.6,-,N/A,,Overcast,170,2012-12-09 15:15:00
7:35 AM,41.0,35.6,81,30.39,10.0,South,5.8,-,N/A,,Overcast,170,2012-12-09 15:35:00
7:55 AM,41.0,35.6,81,30.39,10.0,SSE,4.6,-,N/A,,Overcast,150,2012-12-09 15:55:00
8:35 AM,41.0,37.4,87,30.38,10.0,South,4.6,-,N/A,,Overcast,190,2012-12-09 16:35:00
8:55 AM,41.0,37.4,87,30.37,3.0,South,6.9,-,N/A,,Overcast,170,2012-12-09 16:55:00
9:15 AM,42.8,37.4,81,30.37,8.0,South,6.9,-,N/A,,Overcast,190,2012-12-09 17:15:00
9:35 AM,42.8,37.4,81,30.39,10.0,SSW,3.5,-,N/A,,Overcast,210,2012-12-09 17:35:00
9:55 AM,42.8,39.2,87,30.39,10.0,South,8.1,-,N/A,,Overcast,180,2012-12-09 17:55:00
10:15 AM,42.8,39.2,87,30.38,4.0,South,6.9,-,N/A,,Overcast,170,2012-12-09 18:15:00
10:35 AM,42.8,39.2,87,30.38,4.0,SSE,6.9,-,N/A,,Overcast,160,2012-12-09 18:35:00
10:55 AM,42.8,39.2,87,30.37,6.0,South,8.1,-,N/A,,Overcast,170,2012-12-09 18:55:00
11:15 AM,42.8,39.2,87,30.36,7.0,South,9.2,-,N/A,,Overcast,170,2012-12-09 19:15:00
11:35 AM,44.6,39.2,81,30.36,10.0,SSE,6.9,-,N/A,,Overcast,160,2012-12-09 19:35:00
11:55 AM,44.6,39.2,81,30.35,10.0,SSE,9.2,18.4,N/A,,Overcast,160,2012-12-09 19:55:00
12:15 PM,44.6,39.2,81,30.36,10.0,SSE,10.4,-,N/A,,Overcast,150,2012-12-09 20:15:00
12:35 PM,44.6,39.2,81,30.34,10.0,SSE,12.7,16.1,N/A,,Overcast,160,2012-12-09 20:35:00
12:55 PM,44.6,39.2,81,30.34,10.0,SSE,11.5,16.1,N/A,,Overcast,150,2012-12-09 20:55:00
1:15 PM,44.6,39.2,81,30.35,9.0,SSE,8.1,17.3,N/A,,Overcast,160,2012-12-09 21:15:00
1:35 PM,44.6,39.2,81,30.34,10.0,SSE,6.9,-,N/A,,Overcast,160,2012-12-09 21:35:00
1:55 PM,44.6,39.2,81,30.34,10.0,SSE,9.2,18.4,N/A,,Overcast,150,2012-12-09 21:55:00
2:15 PM,44.6,39.2,81,30.34,10.0,SSE,10.4,-,N/A,,Overcast,150,2012-12-09 22:15:00
2:35 PM,44.6,39.2,81,30.33,10.0,SSE,12.7,16.1,N/A,,Overcast,160,2012-12-09 22:35:00
2:55 PM,44.6,39.2,81,30.33,10.0,SSE,12.7,17.3,N/A,,Overcast,150,2012-12-09 22:55:00
3:15 PM,44.6,39.2,81,30.33,10.0,SSE,10.4,-,N/A,,Overcast,150,2012-12-09 23:15:00
3:35 PM,44.6,39.2,81,30.33,10.0,SSE,6.9,-,N/A,,Overcast,150,2012-12-09 23:35:00
3:55 PM,44.6,39.2,81,30.33,10.0,SE,10.4,-,N/A,,Overcast,140,2012-12-09 23:55:00
4:15 PM,44.6,39.2,81,30.32,10.0,SSE,10.4,-,N/A,,Overcast,150,2012-12-10 00:15:00
4:35 PM,44.6,41.0,87,30.33,10.0,SSE,10.4,-,N/A,,Overcast,150,2012-12-10 00:35:00
4:55 PM,44.6,39.2,81,30.34,10.0,SSE,6.9,-,N/A,,Overcast,160,2012-12-10 00:55:00
5:15 PM,44.6,41.0,87,30.34,10.0,SSE,8.1,-,N/A,,Overcast,160,2012-12-10 01:15:00
5:35 PM,44.6,41.0,87,30.34,8.0,SSE,6.9,-,0.01,,Overcast,150,2012-12-10 01:35:00
6:15 PM,44.6,41.0,87,30.34,10.0,SSE,10.4,-,N/A,,Overcast,160,2012-12-10 02:15:00
6:35 PM,44.6,41.0,87,30.34,10.0,SSE,8.1,-,N/A,,Overcast,160,2012-12-10 02:35:00
6:55 PM,44.6,41.0,87,30.35,10.0,South,5.8,-,N/A,,Overcast,170,2012-12-10 02:55:00
7:15 PM,44.6,42.8,93,30.35,10.0,SSE,5.8,-,N/A,,Overcast,160,2012-12-10 03:15:00
7:35 PM,44.6,42.8,93,30.34,10.0,SSE,8.1,-,N/A,,Overcast,160,2012-12-10 03:35:00
7:55 PM,44.6,42.8,93,30.34,10.0,SSE,6.9,-,N/A,,Overcast,160,2012-12-10 03:55:00
8:15 PM,44.6,42.8,93,30.34,10.0,SSE,10.4,-,N/A,,Overcast,150,2012-12-10 04:15:00
8:35 PM,44.6,42.8,93,30.34,10.0,SSE,8.1,-,N/A,,Overcast,160,2012-12-10 04:35:00
8:55 PM,44.6,42.8,93,30.34,10.0,SSE,9.2,-,N/A,,Overcast,160,2012-12-10 04:55:00
9:15 PM,46.4,42.8,87,30.34,10.0,South,6.9,-,N/A,,Overcast,170,2012-12-10 05:15:00
9:35 PM,46.4,42.8,87,30.36,10.0,SSE,4.6,-,N/A,,Overcast,160,2012-12-10 05:35:00
9:55 PM,46.4,42.8,87,30.35,5.0,South,3.5,-,N/A,,Overcast,170,2012-12-10 05:55:00
10:15 PM,44.6,42.8,93,30.36,4.0,SSE,3.5,-,N/A,,Overcast,150,2012-12-10 06:15:00
10:35 PM,44.6,42.8,93,30.36,10.0,SSE,5.8,-,N/A,,Overcast,150,2012-12-10 06:35:00
10:55 PM,46.4,42.8,87,30.36,10.0,SE,8.1,-,N/A,,Overcast,140,2012-12-10 06:55:00
11:15 PM,46.4,42.8,87,30.37,10.0,SSE,6.9,-,N/A,,Overcast,150,2012-12-10 07:15:00
11:35 PM,46.4,42.8,87,30.39,8.0,SE,5.8,-,N/A,,Overcast,140,2012-12-10 07:35:00